EW2145 Weather Reports


time (UTC)temp
F
wind
direction
speed
knots
gust
knots
rain 1hr
in
rain 24hr
in
rain mn
in
humidity
%
barometer
mb
20260504232522 69 320 1.7 9.6 0.00 0.00 0.00 39 1004.3
20260504232021 69 188 1.7 6.1 0.00 0.00 0.00 38 1004.1
20260504231521 69 85 0.0 9.6 0.00 0.00 0.00 39 1004.1
20260504231021 69 268 2.6 9.6 0.00 0.00 0.00 37 1004.2
20260504230521 70 208 5.2 9.6 0.00 0.00 0.00 37 1004.3
20260504230020 70 150 1.7 7.0 0.00 0.00 0.00 36 1004.2
20260504230004 70 200 5.2 7.0 0.00 0.00 0.00 35 1004.0
20260504225020 70 224 0.9 10.4 0.00 0.00 0.00 36 1004.1
20260504224520 71 274 0.9 11.3 0.00 0.00 0.00 36 1004.1
20260504224019 71 220 6.1 12.2 0.00 0.00 0.00 34 1004.3
20260504223745 71 215 5.2 13.0 0.00 0.00 0.00 34 1004.2
20260504223019 71 286 1.7 13.0 0.00 0.00 0.00 36 1004.3
20260504222741 72 211 7.8 14.8 0.00 0.00 0.00 34 1004.3
20260504222019 71 192 3.5 14.8 0.00 0.00 0.00 34 1004.0
20260504221519 72 210 2.6 12.2 0.00 0.00 0.00 36 1004.0
20260504221239 72 224 5.2 12.2 0.00 0.00 0.00 34 1004.1
20260504220518 72 299 10.4 11.3 0.00 0.00 0.00 34 1004.1
20260504220245 73 139 1.7 13.0 0.00 0.00 0.00 34 1004.0
20260504215518 73 204 3.5 13.0 0.00 0.00 0.00 34 1004.0
20260504215242 73 217 7.0 10.4 0.00 0.00 0.00 32 1004.0
20260504214737 73 223 8.7 13.9 0.00 0.00 0.00 31 1003.9
20260504214017 73 243 7.0 13.9 0.00 0.00 0.00 32 1003.8
20260504213517 74 207 5.2 11.3 0.00 0.00 0.00 32 1003.9
20260504213016 73 227 2.6 11.3 0.00 0.00 0.00 32 1004.1
20260504212517 73 205 8.7 11.3 0.00 0.00 0.00 32 1003.8
20260504212016 74 212 4.3 10.4 0.00 0.00 0.00 34 1004.0
20260504211517 73 243 5.2 13.9 0.00 0.00 0.00 33 1004.1
20260504211016 73 215 7.8 14.8 0.00 0.00 0.00 35 1004.0
20260504210516 73 188 3.5 14.8 0.00 0.00 0.00 33 1004.0
20260504210016 73 246 4.3 14.8 0.00 0.00 0.00 33 1004.2
20260504205515 73 229 4.3 15.6 0.00 0.00 0.00 33 1004.3
20260504205015 73 236 6.1 17.4 0.00 0.00 0.00 32 1004.2
20260504204515 73 225 13.9 17.4 0.00 0.00 0.00 32 1004.0
20260504204016 74 263 4.3 15.6 0.00 0.00 0.00 33 1004.1
20260504203514 73 278 12.2 13.9 0.00 0.00 0.00 33 1004.3
20260504203014 74 210 6.1 14.8 0.00 0.00 0.00 34 1004.3
20260504202514 73 185 2.6 16.5 0.00 0.00 0.00 34 1004.3
20260504202014 74 246 6.1 16.5 0.00 0.00 0.00 33 1004.3
20260504201514 74 231 7.0 16.5 0.00 0.00 0.00 34 1004.3
20260504201235 74 226 4.3 13.0 0.00 0.00 0.00 35 1004.3
20260504200513 73 216 3.5 16.5 0.00 0.00 0.00 37 1004.5
20260504200014 73 215 5.2 16.5 0.00 0.00 0.00 37 1004.7
20260504195735 73 200 10.4 18.2 0.00 0.00 0.00 36 1004.5
20260504195013 73 215 5.2 19.1 0.00 0.00 0.00 37 1005.0
20260504194513 73 261 7.0 19.1 0.00 0.00 0.00 35 1004.8
20260504194012 72 211 9.6 19.1 0.00 0.00 0.00 35 1004.8
20260504193743 72 229 10.4 14.8 0.00 0.00 0.00 37 1005.1
20260504193012 73 218 10.4 14.8 0.00 0.00 0.00 37 1005.2
20260504192512 72 213 7.8 14.8 0.00 0.00 0.00 37 1005.1
20260504192230 72 218 8.7 13.9 0.00 0.00 0.00 38 1005.1
20260504191511 72 223 7.8 12.2 0.00 0.00 0.00 38 1005.3
20260504191012 73 252 4.3 17.4 0.00 0.00 0.00 38 1005.5
20260504190511 72 224 1.7 17.4 0.00 0.00 0.00 39 1005.4
20260504190010 71 197 1.7 16.5 0.00 0.00 0.00 39 1005.5
20260504185510 71 205 4.3 18.2 0.00 0.00 0.00 40 1005.5
20260504185010 71 200 8.7 20.9 0.00 0.00 0.00 38 1005.7
20260504184510 71 216 7.8 20.9 0.00 0.00 0.00 39 1005.7
20260504184010 71 244 11.3 18.2 0.00 0.00 0.00 39 1005.7
20260504183509 70 246 5.2 18.2 0.00 0.00 0.00 41 1005.7
20260504183009 70 232 10.4 15.6 0.00 0.00 0.00 40 1005.8
20260504182509 70 205 7.8 15.6 0.00 0.00 0.00 40 1006.0
20260504182009 70 226 7.0 16.5 0.00 0.00 0.00 41 1006.0
20260504181508 71 213 7.8 16.5 0.00 0.00 0.00 41 1006.0
20260504181008 70 215 8.7 17.4 0.00 0.00 0.00 41 1006.1
20260504180508 70 240 7.0 17.4 0.00 0.00 0.00 39 1006.1
20260504180009 70 234 9.6 20.9 0.00 0.00 0.00 42 1006.2
20260504175734 70 241 7.8 20.9 0.00 0.00 0.00 44 1006.2
20260504175008 70 208 12.2 20.9 0.00 0.00 0.00 42 1006.2
20260504174509 70 225 7.0 13.9 0.00 0.00 0.00 44 1006.1
20260504174007 69 217 7.8 21.7 0.00 0.00 0.00 43 1006.3
20260504173507 69 217 5.2 21.7 0.00 0.00 0.00 44 1006.3
20260504173007 69 216 11.3 18.2 0.00 0.00 0.00 43 1006.4
20260504172507 69 219 7.8 18.2 0.00 0.00 0.00 43 1006.4
20260504172230 68 241 4.3 24.3 0.00 0.00 0.00 45 1006.4
20260504171507 68 220 8.7 24.3 0.00 0.00 0.00 44 1006.4
20260504171006 67 212 14.8 21.7 0.00 0.00 0.00 45 1006.4
20260504170506 67 215 8.7 19.1 0.00 0.00 0.00 45 1006.4
20260504151001 62 222 8.7 18.2 0.00 0.00 0.00 48 1007.3
20260504150501 61 220 3.5 18.2 0.00 0.00 0.00 50 1007.5
20260504150231 62 213 10.4 18.2 0.00 0.00 0.00 49 1007.5
20260504140959 60 194 7.0 24.3 0.00 0.00 0.00 51 1007.4
20260504140458 60 223 6.1 24.3 0.00 0.00 0.00 50 1007.4
20260504140218 60 207 17.4 24.3 0.00 0.00 0.00 49 1007.5
20260504130456 58 195 7.8 20.9 0.00 0.00 0.00 50 1007.8
20260504110451 52 201 7.0 14.8 0.00 0.00 0.00 55 1007.9
20260504100449 51 191 9.6 13.9 0.00 0.00 0.00 53 1007.6
20260504081544 49 205 4.3 12.2 0.00 0.00 0.00 56 1008.2
20260504081304 49 231 7.8 12.2 0.00 0.00 0.00 56 1008.2
20260504081037 49 205 5.2 12.2 0.00 0.00 0.00 56 1008.5
20260504050537 51 199 4.3 11.3 0.00 0.00 0.00 52 1009.8
20260504045536 51 216 2.6 8.7 0.00 0.00 0.00 52 1010.0
20260504045036 52 211 5.2 8.7 0.00 0.00 0.00 51 1009.7
20260504044535 52 223 3.5 11.3 0.00 0.00 0.00 51 1009.8
20260504044036 52 221 5.2 12.2 0.00 0.00 0.00 50 1009.7
20260504043536 53 237 7.8 13.0 0.00 0.00 0.00 49 1009.8
20260504043035 53 198 7.8 13.0 0.00 0.00 0.00 49 1009.6
20260504042535 53 213 7.0 13.0 0.00 0.00 0.00 49 1009.5
20260504042035 53 216 6.1 13.0 0.00 0.00 0.00 49 1009.7
20260504041534 53 250 3.5 13.0 0.00 0.00 0.00 48 1009.5
20260504041303 53 195 7.0 12.2 0.00 0.00 0.00 49 1009.7
20260504040534 53 216 5.2 12.2 0.00 0.00 0.00 48 1009.7
20260504040034 53 203 7.0 12.2 0.00 0.00 0.00 48 1009.8
20260504035534 53 196 7.0 13.0 0.00 0.00 0.00 48 1009.7
20260504035034 53 224 2.6 15.6 0.00 0.00 0.00 48 1009.8
20260504034533 54 218 5.2 21.7 0.00 0.00 0.00 47 1009.5
20260504034033 54 215 8.7 21.7 0.00 0.00 0.00 47 1009.8
20260504033533 53 163 3.5 13.0 0.00 0.00 0.00 48 1009.7
20260504033033 54 202 3.5 13.9 0.00 0.00 0.00 48 1009.8
20260504032532 54 241 8.7 13.9 0.00 0.00 0.00 47 1009.6
20260504032032 54 227 9.6 16.5 0.00 0.00 0.00 47 1009.6
20260504031750 54 225 9.6 16.5 0.00 0.00 0.00 47 1009.6
20260504031031 54 220 7.8 14.8 0.00 0.00 0.00 47 1009.5
20260504030531 53 189 2.6 13.0 0.00 0.00 0.00 48 1009.6
20260504030032 53 213 7.0 13.0 0.00 0.00 0.00 48 1009.6
20260504025531 53 229 7.8 13.9 0.00 0.00 0.00 48 1009.5
20260504025031 53 186 7.0 13.9 0.00 0.00 0.00 49 1009.6
20260504024751 53 237 9.6 13.0 0.00 0.00 0.00 49 1009.6
20260504024030 53 200 3.5 16.5 0.00 0.00 0.00 50 1009.6
20260504023530 53 268 1.7 16.5 0.00 0.00 0.00 50 1009.8
20260504023030 53 224 12.2 16.5 0.00 0.00 0.00 50 1009.8
20260504022530 53 195 2.6 14.8 0.00 0.00 0.00 50 1009.9
20260504022029 53 216 6.1 13.9 0.00 0.00 0.00 50 1009.8
20260504021529 53 194 3.5 13.0 0.00 0.00 0.00 49 1009.9
20260504021247 53 212 1.7 13.0 0.00 0.00 0.00 49 1009.9
20260504020529 53 190 3.5 17.4 0.00 0.00 0.00 49 1009.9
20260504020029 53 191 5.2 17.4 0.00 0.00 0.00 49 1010.1
20260504015749 53 237 4.3 13.9 0.00 0.00 0.00 49 1009.9
20260504015028 53 229 5.2 12.2 0.00 0.00 0.00 49 1010.1
20260504014528 53 220 1.7 11.3 0.00 0.00 0.00 50 1010.2
20260504014250 53 207 8.7 15.6 0.00 0.00 0.00 50 1010.1
20260504013527 53 204 7.0 15.6 0.00 0.00 0.00 50 1010.1
20260504013027 53 224 4.3 15.6 0.00 0.00 0.00 50 1010.2
20260504012530 52 214 7.0 11.3 0.00 0.00 0.00 52 1010.4
20260504012027 52 216 5.2 11.3 0.00 0.00 0.00 53 1010.1
20260504011527 52 199 4.3 13.0 0.00 0.00 0.00 52 1010.3
20260504011026 52 200 4.3 13.0 0.00 0.00 0.00 52 1010.4
20260504010526 52 252 6.1 15.6 0.00 0.00 0.00 52 1010.1
20260504010026 52 207 5.2 15.6 0.00 0.00 0.00 52 1010.1
20260504005526 52 205 3.5 13.0 0.00 0.00 0.00 52 1010.2
20260504005249 52 186 4.3 13.0 0.00 0.00 0.00 53 1010.0
20260504004755 52 227 7.0 13.0 0.00 0.00 0.00 53 1010.2
20260504004255 52 180 1.7 13.0 0.00 0.00 0.00 53 1010.3
20260504003525 52 218 8.7 11.3 0.00 0.00 0.00 55 1010.2
20260504003257 52 216 4.3 12.2 0.00 0.00 0.00 54 1010.0
20260504002525 52 205 5.2 12.2 0.00 0.00 0.00 54 1010.1
20260504002246 52 242 4.3 13.0 0.00 0.00 0.00 57 1010.0
20260504001746 52 253 2.6 13.0 0.00 0.00 0.00 57 1010.1
20260504001024 52 202 3.5 11.3 0.00 0.00 0.00 57 1010.4
20260504000741 52 143 3.5 12.2 0.00 0.00 0.00 58 1010.2
20260504000024 52 206 4.3 12.2 0.00 0.00 0.00 58 1010.3
20260503235747 52 223 4.3 10.4 0.00 0.00 0.00 58 1010.5
20260503235023 52 301 0.9 11.3 0.00 0.00 0.00 58 1010.5
20260503234523 52 205 3.5 13.0 0.00 0.00 0.00 57 1010.7
20260503234023 52 271 5.2 13.0 0.00 0.00 0.00 56 1010.5
20260503233523 52 203 3.5 14.8 0.00 0.00 0.00 57 1010.4
20260503233022 52 336 5.2 14.8 0.00 0.00 0.00 55 1010.5